{"data":{"norad_id":52498,"intl_designator":"2022-049AZ","name":"STARLINK-3925","alt_names":[],"object_type":"PAYLOAD","status":"ACTIVE","operator":null,"country":"US","launch_date":"2022-05-06","launch_site_code":"AFETR","launch_vehicle":null,"mission":null,"orbit_class":"UNKNOWN","rcs_meters":null,"size_class":null,"mass_kg":null,"dimensions":null,"purposes":["comms"],"wikipedia_slug":null,"has_3d_model":false,"image_url":null,"decayed_at":null,"tle_current":{"epoch":"2026-09-19T22:20:00.379680Z","epoch_age_seconds":112503,"freshness":"FRESH","line1":"1 52498U 22049AZ  26262.93055995  .00001367  00000+0  51600-4 0  9990","line2":"2 52498  53.1596 240.0540 0001206  87.4213 272.6928 15.34387157241948","mean_motion":15.34387157,"eccentricity":0.0001206,"inclination_deg":53.1596,"raan_deg":240.054,"arg_perigee_deg":87.4213,"mean_anomaly_deg":272.6928,"bstar":5.16e-5,"rev_number":24194,"period_min":93.848543598048,"perigee_km":461.91640263934,"apogee_km":463.56642251246,"semimajor_km":6840.8784125759,"source":"CELESTRAK","updated_at":"2026-09-20T09:00:40.056848Z"}}}